TimeEDT,TemperatureF,Dew PointF,Humidity,Sea Level PressureIn,VisibilityMPH,Wind Direction,Wind SpeedMPH,Gust SpeedMPH,PrecipitationIn,Events,Conditions,WindDirDegrees,DateUTC
12:53 AM,54.0,44.1,69,30.15,10.0,WSW,11.5,-,N/A,,Clear,240,2012-10-12 04:53:00
1:53 AM,55.0,45.0,69,30.14,10.0,SW,16.1,-,N/A,,Partly Cloudy,230,2012-10-12 05:53:00
2:53 AM,55.0,45.0,69,30.12,10.0,WSW,13.8,-,N/A,,Partly Cloudy,240,2012-10-12 06:53:00
4:53 AM,57.0,46.9,69,30.07,10.0,SW,19.6,26.5,N/A,,Partly Cloudy,230,2012-10-12 08:53:00
5:53 AM,57.0,48.0,72,30.06,10.0,West,11.5,-,N/A,,Mostly Cloudy,260,2012-10-12 09:53:00
6:53 AM,57.0,46.9,69,30.05,10.0,WSW,18.4,23.0,N/A,,Clear,250,2012-10-12 10:53:00
7:53 AM,57.9,46.9,67,30.05,10.0,WSW,17.3,24.2,N/A,,Partly Cloudy,250,2012-10-12 11:53:00
8:53 AM,61.0,46.9,60,30.04,10.0,WSW,20.7,-,N/A,,Clear,240,2012-10-12 12:53:00
9:53 AM,62.1,46.9,58,30.05,10.0,West,18.4,26.5,N/A,,Clear,260,2012-10-12 13:53:00
10:53 AM,62.1,46.0,56,30.04,10.0,West,15.0,25.3,N/A,,Partly Cloudy,280,2012-10-12 14:53:00
1:53 PM,55.0,42.1,62,30.03,10.0,NNW,18.4,-,N/A,,Overcast,340,2012-10-12 17:53:00
2:53 PM,51.1,41.0,68,30.05,10.0,NNW,17.3,25.3,N/A,,Overcast,330,2012-10-12 18:53:00
3:53 PM,50.0,39.9,68,30.07,10.0,NNW,18.4,27.6,0.00,,Overcast,330,2012-10-12 19:53:00
4:53 PM,51.1,39.0,63,30.10,10.0,NW,21.9,27.6,N/A,,Overcast,320,2012-10-12 20:53:00
5:53 PM,50.0,37.0,61,30.13,10.0,NNW,20.7,26.5,N/A,,Partly Cloudy,330,2012-10-12 21:53:00
6:53 PM,50.0,37.0,61,30.16,10.0,NW,18.4,26.5,N/A,,Partly Cloudy,320,2012-10-12 22:53:00
7:53 PM,51.1,27.0,39,30.19,10.0,NNW,19.6,28.8,N/A,,Partly Cloudy,340,2012-10-12 23:53:00
8:53 PM,50.0,28.9,44,30.23,10.0,NNW,18.4,28.8,N/A,,Partly Cloudy,330,2012-10-13 00:53:00
10:53 PM,46.9,30.9,54,30.29,10.0,NNW,23.0,29.9,N/A,,Scattered Clouds,340,2012-10-13 02:53:00
11:53 PM,45.0,26.1,48,30.31,10.0,NNW,21.9,31.1,N/A,,Clear,340,2012-10-13 03:53:00